Home   Weather   Scottsdale   Past weeks
Flag for USA

Past Weather in Scottsdale, Arizona, USA — Yesterday and Last 2 Weeks

Now
99 °F

Sunny.


Feels Like: 94 °F
Forecast: 97 / 72 °F
Wind: 8 mph from West

Location: Scottsdale Airport

Current Time: Jun 19, 2019 at 6:34:15 pm

Latest Report: Jun 19, 2019 at 5:53 pm


Visibility: 10 mi

Pressure: 29.73 "Hg

Humidity: 7%

Dew Point: 25 °F

Location of ScottsdaleLocation

Past Weather in Scottsdale — Graph

°F

Scottsdale Temperature Yesterday

Maximum temperature yesterday: 100 °F (at 4:53 pm)
Minimum temperature yesterday: 79 °F (at 2:53 am)
Average temperature yesterday: 90 °F

High & Low Weather Summary for the Past Weeks

 TemperatureHumidityPressure
High108 °F (Jun 12, 3:53 pm)42% (Jun 11, 5:53 am)29.96 "Hg (Jun 11, 5:53 am)
Low71 °F (Jun 8, 5:53 am)5% (Jun 12, 2:53 pm)29.62 "Hg (Jun 16, 5:53 pm)
Average90 °F16%29.77 "Hg
* Reported Jun 4 4:53 pm — Jun 19 4:53 pm, Scottsdale. Weather by CustomWeather, © 2019

Note: Actual official high and low records may vary slightly from our data, if they occured in-between our weather recording intervals... More about our weather records

Advertising

Scottsdale Weather History for the Previous 24 Hours

Scroll right to see more
 ConditionsComfort  
Time TempWeatherWind HumidityBarometerVisibility
4:53 pm
Wed, Jun 19
100 °FSunny.3 mph6%29.74 "Hg10 mi
3:53 pm100 °FSunny.6 mph6%29.76 "Hg10 mi
2:53 pm99 °FSunny.8 mph6%29.78 "Hg10 mi
1:53 pm97 °FSunny.5 mph7%29.80 "Hg10 mi
12:53 pm96 °FSunny.7 mph7%29.83 "Hg10 mi
11:53 am94 °FSunny.5 mph8%29.85 "Hg10 mi
10:53 am92 °FSunny.6 mph9%29.87 "Hg10 mi
9:53 am89 °FSunny.6 mph10%29.87 "Hg10 mi
8:53 am86 °FSunny.3 mph10%29.87 "Hg10 mi
7:53 am82 °FSunny.3 mph16%29.87 "Hg10 mi
6:53 am77 °FSunny.No wind18%29.86 "Hg10 mi
5:53 am74 °FSunny.No wind19%29.85 "Hg10 mi
4:53 am75 °FClear.No wind18%29.84 "Hg10 mi
3:53 am73 °FClear.No wind23%29.83 "Hg10 mi
2:53 am76 °FClear.No wind19%29.81 "Hg10 mi
1:53 am81 °FClear.5 mph12%29.81 "Hg10 mi
12:53 am83 °FClear.6 mph11%29.82 "Hg10 mi
11:53 pm
Tue, Jun 18
85 °FClear.6 mph10%29.82 "Hg10 mi
10:53 pm89 °FClear.6 mph7%29.80 "Hg10 mi
9:53 pm88 °FClear.No wind12%29.78 "Hg10 mi
8:53 pm93 °FClear.3 mph8%29.76 "Hg10 mi
7:53 pm95 °FClear.3 mph6%29.75 "Hg10 mi
6:53 pm97 °FSunny.8 mph7%29.74 "Hg10 mi
Weather by CustomWeather, © 2019

See weather overview